291P/NEAT (2023)

Japanese version
Home page
Updated on January 4, 2024

---------------------------------------------------------------------

* Profile

* Pictures

* Orbital Elements

Epoch 2023 Sept. 13.0 TT = JDT 2460200.5
T 2023 May 4.04933 TT                                   Rudenko
q   2.5652304            (2000.0)            P               Q
n   0.10204597     Peri.  173.50865     +0.62646193     -0.77390157
a   4.5352944      Node   237.65923     +0.71010012     +0.61578042
e   0.4343850      Incl.    6.30963     +0.32140826     +0.14795551
P   9.66
>From 959 observations 2003 Sept. 4-2023 Oct. 11, mean residual 0".8.

* Magnitudes Graph

        m1 = 7.7 + 5 log d + 20.0 log r(t + 55)

---------------------------------------------------------------------

The orbital elements are published on M.P.E.C. 2023-V225.
The magnitudes graphs are made with Comet for Windows.

---------------------------------------------------------------------

Copyright(C) Seiichi Yoshida (comet@aerith.net). All rights reserved.